Year,Month,Day,Hour,Minute,Value (Times are PST for windspeed in km/hr)
2011,09,26,00,00,2.80
2011,09,26,00,01,4.20
2011,09,26,00,02,4.10
2011,09,26,00,03,5.80
2011,09,26,00,04,5.10
2011,09,26,00,05,5.90
2011,09,26,00,06,7.10
2011,09,26,00,07,4.70
2011,09,26,00,08,5.40
2011,09,26,00,09,4.40
2011,09,26,00,10,5.30
2011,09,26,00,11,4.10
2011,09,26,00,12,4.80
2011,09,26,00,13,3.30
2011,09,26,00,14,4.40
2011,09,26,00,15,3.80
2011,09,26,00,16,0.80
2011,09,26,00,17,1.20
2011,09,26,00,18,2.10
2011,09,26,00,19,0.80
2011,09,26,00,20,1.50
2011,09,26,00,21,0.80
2011,09,26,00,22,0.00
2011,09,26,00,23,0.20
2011,09,26,00,24,3.70
2011,09,26,00,25,3.30
2011,09,26,00,26,4.10
2011,09,26,00,27,2.90
2011,09,26,00,28,3.20
2011,09,26,00,29,1.40
2011,09,26,00,30,0.10
2011,09,26,00,31,1.50
2011,09,26,00,32,1.40
2011,09,26,00,33,1.20
2011,09,26,00,34,1.50
2011,09,26,00,35,0.20
2011,09,26,00,36,0.60
2011,09,26,00,37,1.90
2011,09,26,00,38,0.80
2011,09,26,00,39,0.00
2011,09,26,00,40,0.00
2011,09,26,00,41,0.00
2011,09,26,00,42,0.00
2011,09,26,00,43,0.00
2011,09,26,00,44,0.00
2011,09,26,00,45,0.00
2011,09,26,00,46,0.20
2011,09,26,00,47,1.40
2011,09,26,00,48,0.80
2011,09,26,00,49,1.60
2011,09,26,00,50,2.00
2011,09,26,00,51,2.40
2011,09,26,00,52,2.10
2011,09,26,00,53,1.00
2011,09,26,00,54,0.00
2011,09,26,00,55,0.00
2011,09,26,00,56,1.50
2011,09,26,00,57,1.10
2011,09,26,00,58,0.10
2011,09,26,00,59,0.10
2011,09,26,01,00,0.00
2011,09,26,01,01,0.00
2011,09,26,01,02,0.00
2011,09,26,01,03,0.00
2011,09,26,01,04,0.00
2011,09,26,01,05,0.00
2011,09,26,01,06,0.00
2011,09,26,01,07,0.00
2011,09,26,01,08,0.00
2011,09,26,01,09,0.00
2011,09,26,01,10,0.10
2011,09,26,01,11,0.00
2011,09,26,01,12,0.00
2011,09,26,01,13,0.00
2011,09,26,01,14,0.10
2011,09,26,01,15,0.60
2011,09,26,01,16,1.10
2011,09,26,01,17,1.50
2011,09,26,01,18,0.20
2011,09,26,01,19,1.80
2011,09,26,01,20,3.20
2011,09,26,01,21,3.30
2011,09,26,01,22,4.00
2011,09,26,01,23,1.70
2011,09,26,01,24,2.80
2011,09,26,01,25,4.20
2011,09,26,01,26,2.10
2011,09,26,01,27,4.60
2011,09,26,01,28,7.90
2011,09,26,01,29,6.00
2011,09,26,01,30,5.20
2011,09,26,01,31,3.70
2011,09,26,01,32,4.30
2011,09,26,01,33,2.70
2011,09,26,01,34,3.00
2011,09,26,01,35,1.50
2011,09,26,01,36,0.00
2011,09,26,01,37,0.70
2011,09,26,01,38,0.20
2011,09,26,01,39,0.10
2011,09,26,01,40,2.00
2011,09,26,01,41,1.50
2011,09,26,01,42,1.50
2011,09,26,01,43,1.40
2011,09,26,01,44,0.70
2011,09,26,01,45,0.80
2011,09,26,01,46,2.60
2011,09,26,01,47,1.50
2011,09,26,01,48,1.70
2011,09,26,01,49,0.40
2011,09,26,01,50,0.50
2011,09,26,01,51,2.00
2011,09,26,01,52,0.70
2011,09,26,01,53,0.10
2011,09,26,01,54,2.30
2011,09,26,01,55,4.90
2011,09,26,01,56,6.40
2011,09,26,01,57,5.00
2011,09,26,01,58,5.50
2011,09,26,01,59,7.40
2011,09,26,02,00,5.10
2011,09,26,02,01,4.90
2011,09,26,02,02,3.10
2011,09,26,02,03,3.10
2011,09,26,02,04,2.40
2011,09,26,02,05,2.20
2011,09,26,02,06,2.70
2011,09,26,02,07,3.80
2011,09,26,02,08,4.50
2011,09,26,02,09,3.80
2011,09,26,02,10,4.90
2011,09,26,02,11,5.40
2011,09,26,02,12,5.80
2011,09,26,02,13,5.70
2011,09,26,02,14,5.40
2011,09,26,02,15,1.50
2011,09,26,02,16,1.90
2011,09,26,02,17,3.30
2011,09,26,02,18,4.40
2011,09,26,02,19,4.70
2011,09,26,02,20,3.50
2011,09,26,02,21,1.60
2011,09,26,02,22,2.90
2011,09,26,02,23,3.80
2011,09,26,02,24,4.70
2011,09,26,02,25,5.60
2011,09,26,02,26,2.80
2011,09,26,02,27,2.20
2011,09,26,02,28,6.20
2011,09,26,02,29,6.00
2011,09,26,02,30,2.10
2011,09,26,02,31,2.40
2011,09,26,02,32,3.40
2011,09,26,02,33,4.80
2011,09,26,02,34,6.00
2011,09,26,02,35,5.10
2011,09,26,02,36,2.70
2011,09,26,02,37,4.60
2011,09,26,02,38,6.60
2011,09,26,02,39,4.10
2011,09,26,02,40,7.30
2011,09,26,02,41,6.60
2011,09,26,02,42,6.00
2011,09,26,02,43,7.10
2011,09,26,02,44,7.50
2011,09,26,02,45,6.70
2011,09,26,02,46,7.70
2011,09,26,02,47,6.60
2011,09,26,02,48,6.70
2011,09,26,02,49,7.50
2011,09,26,02,50,6.70
2011,09,26,02,51,6.50
2011,09,26,02,52,5.20
2011,09,26,02,53,5.40
2011,09,26,02,54,6.60
2011,09,26,02,55,7.80
2011,09,26,02,56,6.80
2011,09,26,02,57,9.10
2011,09,26,02,58,10.20
2011,09,26,02,59,8.80
2011,09,26,03,00,12.70
2011,09,26,03,01,8.30
2011,09,26,03,02,8.60
2011,09,26,03,03,9.70
2011,09,26,03,04,11.00
2011,09,26,03,05,10.70
2011,09,26,03,06,14.20
2011,09,26,03,07,12.90
2011,09,26,03,08,10.80
2011,09,26,03,09,9.10
2011,09,26,03,10,11.30
2011,09,26,03,11,14.10
2011,09,26,03,12,9.80
2011,09,26,03,13,10.70
2011,09,26,03,14,9.30
2011,09,26,03,15,11.90
2011,09,26,03,16,8.80
2011,09,26,03,17,11.30
2011,09,26,03,18,12.00
2011,09,26,03,19,11.30
2011,09,26,03,20,10.10
2011,09,26,03,21,16.60
2011,09,26,03,22,13.40
2011,09,26,03,23,10.70
2011,09,26,03,24,9.50
2011,09,26,03,25,12.20
2011,09,26,03,26,14.00
2011,09,26,03,27,13.20
2011,09,26,03,28,12.50
2011,09,26,03,29,13.50
2011,09,26,03,30,15.90
2011,09,26,03,31,13.60
2011,09,26,03,32,11.70
2011,09,26,03,33,12.00
2011,09,26,03,34,11.50
2011,09,26,03,35,10.70
2011,09,26,03,36,9.70
2011,09,26,03,37,11.90
2011,09,26,03,38,15.70
2011,09,26,03,39,14.00
2011,09,26,03,40,11.10
2011,09,26,03,41,8.00
2011,09,26,03,42,11.10
2011,09,26,03,43,11.00
2011,09,26,03,44,17.20
2011,09,26,03,45,15.80
2011,09,26,03,46,9.40
2011,09,26,03,47,4.30
2011,09,26,03,48,9.00
2011,09,26,03,49,9.70
2011,09,26,03,50,12.40
2011,09,26,03,51,11.90
2011,09,26,03,52,16.40
2011,09,26,03,53,13.10
2011,09,26,03,54,13.20
2011,09,26,03,55,10.40
2011,09,26,03,56,14.10
2011,09,26,03,57,11.90
2011,09,26,03,58,12.00
2011,09,26,03,59,9.40
2011,09,26,04,00,10.70
2011,09,26,04,01,16.30
2011,09,26,04,02,13.70
2011,09,26,04,03,11.40
2011,09,26,04,04,11.80
2011,09,26,04,05,13.00
2011,09,26,04,06,10.70
2011,09,26,04,07,8.50
2011,09,26,04,08,11.70
2011,09,26,04,09,12.70
2011,09,26,04,10,14.10
2011,09,26,04,11,12.40
2011,09,26,04,12,12.50
2011,09,26,04,13,7.10
2011,09,26,04,14,5.90
2011,09,26,04,15,8.20
2011,09,26,04,16,9.20
2011,09,26,04,17,9.00
2011,09,26,04,18,6.90
2011,09,26,04,19,7.10
2011,09,26,04,20,7.00
2011,09,26,04,21,3.90
2011,09,26,04,22,6.70
2011,09,26,04,23,9.10
2011,09,26,04,24,2.90
2011,09,26,04,25,8.00
2011,09,26,04,26,7.10
2011,09,26,04,27,6.00
2011,09,26,04,28,7.10
2011,09,26,04,29,4.60
2011,09,26,04,30,3.70
2011,09,26,04,31,3.00
2011,09,26,04,32,6.40
2011,09,26,04,33,8.00
2011,09,26,04,34,9.50
2011,09,26,04,35,8.50
2011,09,26,04,36,6.90
2011,09,26,04,37,11.50
2011,09,26,04,38,8.20
2011,09,26,04,39,9.30
2011,09,26,04,40,9.90
2011,09,26,04,41,12.30
2011,09,26,04,42,13.20
2011,09,26,04,43,11.50
2011,09,26,04,44,9.00
2011,09,26,04,45,12.40
2011,09,26,04,46,14.30
2011,09,26,04,47,9.30
2011,09,26,04,48,14.40
2011,09,26,04,49,15.30
2011,09,26,04,50,19.00
2011,09,26,04,51,13.90
2011,09,26,04,52,17.90
2011,09,26,04,53,17.80
2011,09,26,04,54,17.10
2011,09,26,04,55,21.40
2011,09,26,04,56,14.40
2011,09,26,04,57,14.50
2011,09,26,04,58,17.00
2011,09,26,04,59,22.90
2011,09,26,05,00,21.00
2011,09,26,05,01,18.20
2011,09,26,05,02,22.30
2011,09,26,05,03,17.80
2011,09,26,05,04,17.30
2011,09,26,05,05,17.80
2011,09,26,05,06,17.10
2011,09,26,05,07,14.50
2011,09,26,05,08,12.90
2011,09,26,05,09,19.50
2011,09,26,05,10,16.20
2011,09,26,05,11,13.60
2011,09,26,05,12,12.00
2011,09,26,05,13,12.90
2011,09,26,05,14,6.90
2011,09,26,05,15,9.00
2011,09,26,05,16,12.20
2011,09,26,05,17,10.00
2011,09,26,05,18,11.30
2011,09,26,05,19,11.50
2011,09,26,05,20,13.00
2011,09,26,05,21,10.40
2011,09,26,05,22,10.90
2011,09,26,05,23,10.80
2011,09,26,05,24,8.30
2011,09,26,05,25,2.50
2011,09,26,05,26,5.60
2011,09,26,05,27,11.50
2011,09,26,05,28,11.80
2011,09,26,05,29,11.20
2011,09,26,05,30,7.00
2011,09,26,05,31,4.80
2011,09,26,05,32,7.90
2011,09,26,05,33,7.20
2011,09,26,05,34,4.70
2011,09,26,05,35,2.60
2011,09,26,05,36,1.10
2011,09,26,05,37,0.40
2011,09,26,05,38,0.40
2011,09,26,05,39,2.50
2011,09,26,05,40,0.20
2011,09,26,05,41,0.40
2011,09,26,05,42,0.00
2011,09,26,05,43,1.00
2011,09,26,05,44,4.10
2011,09,26,05,45,9.50
2011,09,26,05,46,4.50
2011,09,26,05,47,9.90
2011,09,26,05,48,3.60
2011,09,26,05,49,4.70
2011,09,26,05,50,8.50
2011,09,26,05,51,11.50
2011,09,26,05,52,13.50
2011,09,26,05,53,15.50
2011,09,26,05,54,18.60
2011,09,26,05,55,7.90
2011,09,26,05,56,9.30
2011,09,26,05,57,7.20
2011,09,26,05,58,10.60
2011,09,26,05,59,11.60
2011,09,26,06,00,8.00
2011,09,26,06,01,11.30
2011,09,26,06,02,11.00
2011,09,26,06,03,12.70
2011,09,26,06,04,15.20
2011,09,26,06,05,15.70
2011,09,26,06,06,8.80
2011,09,26,06,07,11.10
2011,09,26,06,08,11.70
2011,09,26,06,09,13.40
2011,09,26,06,10,19.50
2011,09,26,06,11,19.00
2011,09,26,06,12,15.10
2011,09,26,06,13,21.20
2011,09,26,06,14,15.00
2011,09,26,06,15,13.90
2011,09,26,06,16,14.80
2011,09,26,06,17,16.20
2011,09,26,06,18,17.50
2011,09,26,06,19,15.60
2011,09,26,06,20,19.00
2011,09,26,06,21,14.30
2011,09,26,06,22,15.90
2011,09,26,06,23,12.00
2011,09,26,06,24,17.00
2011,09,26,06,25,17.40
2011,09,26,06,26,15.70
2011,09,26,06,27,19.90
2011,09,26,06,28,20.90
2011,09,26,06,29,17.70
2011,09,26,06,30,14.30
2011,09,26,06,31,15.70
2011,09,26,06,32,11.30
2011,09,26,06,33,9.70
2011,09,26,06,34,18.20
2011,09,26,06,35,16.00
2011,09,26,06,36,13.50
2011,09,26,06,37,13.00
2011,09,26,06,38,16.90
2011,09,26,06,39,14.40
2011,09,26,06,40,19.60
2011,09,26,06,41,18.20
2011,09,26,06,42,18.80
2011,09,26,06,43,13.70
2011,09,26,06,44,16.10
2011,09,26,06,45,12.40
2011,09,26,06,46,15.10
2011,09,26,06,47,14.80
2011,09,26,06,48,17.30
2011,09,26,06,49,18.80
2011,09,26,06,50,14.70
2011,09,26,06,51,13.20
2011,09,26,06,52,19.10
2011,09,26,06,53,13.80
2011,09,26,06,54,13.40
2011,09,26,06,55,21.10
2011,09,26,06,56,14.90
2011,09,26,06,57,19.90
2011,09,26,06,58,18.20
2011,09,26,06,59,13.90
2011,09,26,07,00,14.60
2011,09,26,07,01,14.20
2011,09,26,07,02,11.00
2011,09,26,07,03,8.70
2011,09,26,07,04,12.60
2011,09,26,07,05,10.60
2011,09,26,07,06,18.20
2011,09,26,07,07,17.90
2011,09,26,07,08,11.50
2011,09,26,07,09,15.30
2011,09,26,07,10,13.50
2011,09,26,07,11,12.00
2011,09,26,07,12,15.10
2011,09,26,07,13,13.10
2011,09,26,07,14,15.60
2011,09,26,07,15,11.80
2011,09,26,07,16,14.40
2011,09,26,07,17,14.40
2011,09,26,07,18,17.40
2011,09,26,07,19,12.70
2011,09,26,07,20,11.50
2011,09,26,07,21,7.60
2011,09,26,07,22,14.30
2011,09,26,07,23,13.90
2011,09,26,07,24,10.20
2011,09,26,07,25,20.00
2011,09,26,07,26,12.60
2011,09,26,07,27,10.70
2011,09,26,07,28,11.70
2011,09,26,07,29,16.50
2011,09,26,07,30,15.00
2011,09,26,07,31,12.20
2011,09,26,07,32,11.70
2011,09,26,07,33,12.30
2011,09,26,07,34,21.40
2011,09,26,07,35,17.60
2011,09,26,07,36,15.30
2011,09,26,07,37,12.10
2011,09,26,07,38,14.10
2011,09,26,07,39,18.30
2011,09,26,07,40,14.00
2011,09,26,07,41,11.40
2011,09,26,07,42,14.40
2011,09,26,07,43,17.10
2011,09,26,07,44,17.40
2011,09,26,07,45,16.70
2011,09,26,07,46,13.70
2011,09,26,07,47,17.90
2011,09,26,07,48,13.20
2011,09,26,07,49,15.20
2011,09,26,07,50,17.50
2011,09,26,07,51,18.10
2011,09,26,07,52,19.40
2011,09,26,07,53,13.80
2011,09,26,07,54,24.70
2011,09,26,07,55,14.80
2011,09,26,07,56,15.90
2011,09,26,07,57,19.50
2011,09,26,07,58,14.90
2011,09,26,07,59,16.40
2011,09,26,08,00,12.50
2011,09,26,08,01,11.90
2011,09,26,08,02,17.60
2011,09,26,08,03,16.50
2011,09,26,08,04,13.90
2011,09,26,08,05,19.20
2011,09,26,08,06,20.40
2011,09,26,08,07,19.90
2011,09,26,08,08,20.70
2011,09,26,08,09,12.40
2011,09,26,08,10,20.70
2011,09,26,08,11,18.80
2011,09,26,08,12,17.10
2011,09,26,08,13,19.80
2011,09,26,08,14,13.20
2011,09,26,08,15,17.60
2011,09,26,08,16,22.50
2011,09,26,08,17,26.20
2011,09,26,08,18,12.20
2011,09,26,08,19,19.00
2011,09,26,08,20,16.30
2011,09,26,08,21,12.00
2011,09,26,08,22,10.60
2011,09,26,08,23,7.40
2011,09,26,08,24,10.60
2011,09,26,08,25,15.00
2011,09,26,08,26,16.20
2011,09,26,08,27,17.40
2011,09,26,08,28,17.50
2011,09,26,08,29,16.90
2011,09,26,08,30,15.50
2011,09,26,08,31,10.10
2011,09,26,08,32,20.90
2011,09,26,08,33,23.70
2011,09,26,08,34,17.50
2011,09,26,08,35,20.90
2011,09,26,08,36,15.30
2011,09,26,08,37,20.60
2011,09,26,08,38,18.50
2011,09,26,08,39,16.10
2011,09,26,08,40,20.40
2011,09,26,08,41,25.80
2011,09,26,08,42,27.80
2011,09,26,08,43,22.20
2011,09,26,08,44,21.30
2011,09,26,08,45,21.10
2011,09,26,08,46,23.80
2011,09,26,08,47,23.40
2011,09,26,08,48,20.00
2011,09,26,08,49,24.10
2011,09,26,08,50,23.70
2011,09,26,08,51,26.80
2011,09,26,08,52,29.50
2011,09,26,08,53,21.50
2011,09,26,08,54,24.30
2011,09,26,08,55,20.00
2011,09,26,08,56,24.30
2011,09,26,08,57,17.80
2011,09,26,08,58,22.10
2011,09,26,08,59,25.70
2011,09,26,09,00,28.20
2011,09,26,09,01,27.10
2011,09,26,09,02,20.60
2011,09,26,09,03,19.60
2011,09,26,09,04,24.10
2011,09,26,09,05,14.60
2011,09,26,09,06,23.10
2011,09,26,09,07,34.60
2011,09,26,09,08,21.80
2011,09,26,09,09,21.40
2011,09,26,09,10,28.70
2011,09,26,09,11,23.40
2011,09,26,09,12,20.20
2011,09,26,09,13,20.20
2011,09,26,09,14,20.70
2011,09,26,09,15,21.20
2011,09,26,09,16,16.20
2011,09,26,09,17,26.20
2011,09,26,09,18,26.40
2011,09,26,09,19,24.80
2011,09,26,09,20,17.80
2011,09,26,09,21,26.50
2011,09,26,09,22,22.30
2011,09,26,09,23,26.80
2011,09,26,09,24,22.10
2011,09,26,09,25,27.60
2011,09,26,09,26,29.60
2011,09,26,09,27,26.50
2011,09,26,09,28,36.90
2011,09,26,09,29,32.00
2011,09,26,09,30,32.30
2011,09,26,09,31,29.90
2011,09,26,09,32,28.90
2011,09,26,09,33,27.80
2011,09,26,09,34,37.00
2011,09,26,09,35,25.50
2011,09,26,09,36,29.50
2011,09,26,09,37,26.20
2011,09,26,09,38,25.80
2011,09,26,09,39,23.00
2011,09,26,09,40,25.90
2011,09,26,09,41,23.70
2011,09,26,09,42,20.30
2011,09,26,09,43,26.30
2011,09,26,09,44,25.60
2011,09,26,09,45,22.70
2011,09,26,09,46,31.30
2011,09,26,09,47,29.90
2011,09,26,09,48,23.80
2011,09,26,09,49,25.10
2011,09,26,09,50,23.10
2011,09,26,09,51,29.00
2011,09,26,09,52,31.40
2011,09,26,09,53,27.60
2011,09,26,09,54,31.10
2011,09,26,09,55,17.80
2011,09,26,09,56,33.70
2011,09,26,09,57,28.80
2011,09,26,09,58,26.30
2011,09,26,09,59,28.90
2011,09,26,10,00,25.40
2011,09,26,10,01,21.70
2011,09,26,10,02,26.50
2011,09,26,10,03,25.50
2011,09,26,10,04,18.70
2011,09,26,10,05,22.80
2011,09,26,10,06,29.50
2011,09,26,10,07,31.70
2011,09,26,10,08,20.20
2011,09,26,10,09,25.60
2011,09,26,10,10,26.10
2011,09,26,10,11,20.30
2011,09,26,10,12,34.90
2011,09,26,10,13,31.20
2011,09,26,10,14,26.80
2011,09,26,10,15,23.20
2011,09,26,10,16,42.20
2011,09,26,10,17,43.20
2011,09,26,10,18,25.00
2011,09,26,10,19,23.70
2011,09,26,10,20,37.30
2011,09,26,10,21,55.50
2011,09,26,10,22,36.90
2011,09,26,10,23,30.20
2011,09,26,10,24,33.10
2011,09,26,10,25,24.80
2011,09,26,10,26,19.20
2011,09,26,10,27,28.50
2011,09,26,10,28,33.50
2011,09,26,10,29,31.80
2011,09,26,10,30,21.30
2011,09,26,10,31,33.10
2011,09,26,10,32,24.60
2011,09,26,10,33,32.70
2011,09,26,10,34,19.70
2011,09,26,10,35,22.60
2011,09,26,10,36,34.70
2011,09,26,10,37,20.60
2011,09,26,10,38,20.80
2011,09,26,10,39,23.70
2011,09,26,10,40,22.70
2011,09,26,10,41,22.70
2011,09,26,10,42,29.20
2011,09,26,10,43,36.50
2011,09,26,10,44,28.20
2011,09,26,10,45,28.60
2011,09,26,10,46,21.10
2011,09,26,10,47,30.00
2011,09,26,10,48,20.60
2011,09,26,10,49,12.00
2011,09,26,10,50,30.80
2011,09,26,10,51,25.90
2011,09,26,10,52,20.80
2011,09,26,10,53,29.00
2011,09,26,10,54,22.00
2011,09,26,10,55,27.40
2011,09,26,10,56,26.10
2011,09,26,10,57,35.30
2011,09,26,10,58,27.10
2011,09,26,10,59,28.50
2011,09,26,11,00,33.70
2011,09,26,11,01,24.80
2011,09,26,11,02,24.60
2011,09,26,11,03,34.40
2011,09,26,11,04,20.60
2011,09,26,11,05,29.20
2011,09,26,11,06,28.80
2011,09,26,11,07,29.00
2011,09,26,11,08,25.70
2011,09,26,11,09,31.70
2011,09,26,11,10,22.90
2011,09,26,11,11,16.20
2011,09,26,11,12,16.00
2011,09,26,11,13,25.10
2011,09,26,11,14,23.20
2011,09,26,11,15,32.30
2011,09,26,11,16,31.80
2011,09,26,11,17,22.70
2011,09,26,11,18,23.80
2011,09,26,11,19,23.00
2011,09,26,11,20,19.00
2011,09,26,11,21,18.20
2011,09,26,11,22,17.80
2011,09,26,11,23,36.80
2011,09,26,11,24,27.80
2011,09,26,11,25,25.00
2011,09,26,11,26,34.70
2011,09,26,11,27,24.00
2011,09,26,11,28,22.70
2011,09,26,11,29,19.40
2011,09,26,11,30,33.50
2011,09,26,11,31,25.70
2011,09,26,11,32,27.40
2011,09,26,11,33,28.80
2011,09,26,11,34,18.40
2011,09,26,11,35,25.60
2011,09,26,11,36,17.70
2011,09,26,11,37,18.50
2011,09,26,11,38,25.80
2011,09,26,11,39,17.80
2011,09,26,11,40,28.10
2011,09,26,11,41,25.80
2011,09,26,11,42,26.90
2011,09,26,11,43,12.90
2011,09,26,11,44,22.90
2011,09,26,11,45,25.80
2011,09,26,11,46,26.70
2011,09,26,11,47,29.30
2011,09,26,11,48,25.50
2011,09,26,11,49,23.10
2011,09,26,11,50,26.60
2011,09,26,11,51,21.90
2011,09,26,11,52,31.20
2011,09,26,11,53,27.50
2011,09,26,11,54,30.00
2011,09,26,11,55,17.50
2011,09,26,11,56,28.30
2011,09,26,11,57,18.60
2011,09,26,11,58,24.00
2011,09,26,11,59,35.50
2011,09,26,12,00,21.70
2011,09,26,12,01,30.10
2011,09,26,12,02,30.20
2011,09,26,12,03,28.00
2011,09,26,12,04,32.50
2011,09,26,12,05,29.70
2011,09,26,12,06,23.60
2011,09,26,12,07,20.20
2011,09,26,12,08,28.50
2011,09,26,12,09,41.80
2011,09,26,12,10,16.80
2011,09,26,12,11,14.60
2011,09,26,12,12,33.10
2011,09,26,12,13,22.20
2011,09,26,12,14,26.60
2011,09,26,12,15,23.70
2011,09,26,12,16,29.30
2011,09,26,12,17,28.70
2011,09,26,12,18,19.20
2011,09,26,12,19,28.80
2011,09,26,12,20,30.80
2011,09,26,12,21,33.10
2011,09,26,12,22,26.70
2011,09,26,12,23,29.20
2011,09,26,12,24,29.20
2011,09,26,12,25,25.90
2011,09,26,12,26,29.80
2011,09,26,12,27,21.30
2011,09,26,12,28,19.90
2011,09,26,12,29,29.80
2011,09,26,12,30,27.20
2011,09,26,12,31,27.10
2011,09,26,12,32,25.50
2011,09,26,12,33,18.20
2011,09,26,12,34,16.90
2011,09,26,12,35,28.50
2011,09,26,12,36,16.40
2011,09,26,12,37,24.70
2011,09,26,12,38,27.00
2011,09,26,12,39,27.80
2011,09,26,12,40,13.70
2011,09,26,12,41,20.50
2011,09,26,12,42,32.30
2011,09,26,12,43,29.50
2011,09,26,12,44,28.20
2011,09,26,12,45,26.70
2011,09,26,12,46,29.80
2011,09,26,12,47,32.80
2011,09,26,12,48,30.40
2011,09,26,12,49,20.20
2011,09,26,12,50,19.40
2011,09,26,12,51,17.50
2011,09,26,12,52,17.20
2011,09,26,12,53,26.00
2011,09,26,12,54,33.80
2011,09,26,12,55,23.50
2011,09,26,12,56,23.40
2011,09,26,12,57,16.20
2011,09,26,12,58,26.70
2011,09,26,12,59,24.60
2011,09,26,13,00,17.70
2011,09,26,13,01,27.50
2011,09,26,13,02,19.90
2011,09,26,13,03,24.50
2011,09,26,13,04,29.90
2011,09,26,13,05,15.90
2011,09,26,13,06,24.70
2011,09,26,13,07,18.60
2011,09,26,13,08,21.70
2011,09,26,13,09,23.10
2011,09,26,13,10,22.10
2011,09,26,13,11,30.90
2011,09,26,13,12,25.20
2011,09,26,13,13,20.90
2011,09,26,13,14,12.90
2011,09,26,13,15,18.40
2011,09,26,13,16,20.40
2011,09,26,13,17,16.50
2011,09,26,13,18,21.00
2011,09,26,13,19,18.70
2011,09,26,13,20,20.80
2011,09,26,13,21,22.30
2011,09,26,13,22,25.80
2011,09,26,13,23,17.10
2011,09,26,13,24,17.70
2011,09,26,13,25,16.00
2011,09,26,13,26,11.20
2011,09,26,13,27,14.60
2011,09,26,13,28,19.20
2011,09,26,13,29,21.80
2011,09,26,13,30,20.20
2011,09,26,13,31,21.60
2011,09,26,13,32,14.30
2011,09,26,13,33,16.40
2011,09,26,13,34,20.90
2011,09,26,13,35,18.50
2011,09,26,13,36,13.20
2011,09,26,13,37,10.90
2011,09,26,13,38,11.90
2011,09,26,13,39,11.50
2011,09,26,13,40,19.70
2011,09,26,13,41,14.30
2011,09,26,13,42,16.60
2011,09,26,13,43,15.70
2011,09,26,13,44,9.40
2011,09,26,13,45,15.60
2011,09,26,13,46,22.40
2011,09,26,13,47,13.80
2011,09,26,13,48,9.30
2011,09,26,13,49,16.70
2011,09,26,13,50,13.00
2011,09,26,13,51,11.00
2011,09,26,13,52,8.00
2011,09,26,13,53,17.20
2011,09,26,13,54,17.60
2011,09,26,13,55,24.30
2011,09,26,13,56,20.40
2011,09,26,13,57,19.90
2011,09,26,13,58,16.40
2011,09,26,13,59,20.20
2011,09,26,14,00,14.20
2011,09,26,14,01,10.90
2011,09,26,14,02,11.50
2011,09,26,14,03,19.50
2011,09,26,14,04,20.20
2011,09,26,14,05,14.60
2011,09,26,14,06,13.20
2011,09,26,14,07,11.60
2011,09,26,14,08,16.30
2011,09,26,14,09,19.60
2011,09,26,14,10,17.40
2011,09,26,14,11,19.20
2011,09,26,14,12,16.80
2011,09,26,14,13,23.20
2011,09,26,14,14,16.10
2011,09,26,14,15,17.00
2011,09,26,14,16,18.90
2011,09,26,14,17,10.70
2011,09,26,14,18,12.70
2011,09,26,14,19,18.00
2011,09,26,14,20,14.80
2011,09,26,14,21,18.10
2011,09,26,14,22,11.50
2011,09,26,14,23,17.10
2011,09,26,14,24,16.20
2011,09,26,14,25,17.60
2011,09,26,14,26,15.50
2011,09,26,14,27,11.40
2011,09,26,14,28,9.90
2011,09,26,14,29,10.90
2011,09,26,14,30,11.80
2011,09,26,14,31,10.60
2011,09,26,14,32,10.70
2011,09,26,14,33,11.20
2011,09,26,14,34,11.60
2011,09,26,14,35,13.20
2011,09,26,14,36,14.80
2011,09,26,14,37,10.30
2011,09,26,14,38,11.30
2011,09,26,14,39,13.10
2011,09,26,14,40,11.50
2011,09,26,14,41,13.00
2011,09,26,14,42,11.30
2011,09,26,14,43,14.90
2011,09,26,14,44,12.40
2011,09,26,14,45,16.40
2011,09,26,14,46,15.40
2011,09,26,14,47,10.70
2011,09,26,14,48,12.90
2011,09,26,14,49,12.20
2011,09,26,14,50,15.40
2011,09,26,14,51,13.10
2011,09,26,14,52,10.50
2011,09,26,14,53,11.20
2011,09,26,14,54,9.40
2011,09,26,14,55,11.90
2011,09,26,14,56,13.10
2011,09,26,14,57,14.30
2011,09,26,14,58,15.90
2011,09,26,14,59,10.10
2011,09,26,15,00,13.50
2011,09,26,15,01,10.40
2011,09,26,15,02,12.40
2011,09,26,15,03,14.40
2011,09,26,15,04,16.00
2011,09,26,15,05,14.60
2011,09,26,15,06,13.20
2011,09,26,15,07,16.20
2011,09,26,15,08,13.40
2011,09,26,15,09,14.00
2011,09,26,15,10,13.60
2011,09,26,15,11,15.90
2011,09,26,15,12,13.80
2011,09,26,15,13,9.20
2011,09,26,15,14,15.80
2011,09,26,15,15,10.30
2011,09,26,15,16,11.10
2011,09,26,15,17,17.00
2011,09,26,15,18,16.10
2011,09,26,15,19,17.30
2011,09,26,15,20,13.80
2011,09,26,15,21,6.20
2011,09,26,15,22,15.10
2011,09,26,15,23,14.30
2011,09,26,15,24,12.50
2011,09,26,15,25,10.90
2011,09,26,15,26,11.70
2011,09,26,15,27,9.10
2011,09,26,15,28,9.40
2011,09,26,15,29,7.00
2011,09,26,15,30,11.00
2011,09,26,15,31,10.10
2011,09,26,15,32,9.40
2011,09,26,15,33,11.80
2011,09,26,15,34,12.90
2011,09,26,15,35,13.60
2011,09,26,15,36,12.20
2011,09,26,15,37,12.50
2011,09,26,15,38,10.40
2011,09,26,15,39,7.10
2011,09,26,15,40,6.70
2011,09,26,15,41,1.10
2011,09,26,15,42,1.20
2011,09,26,15,43,0.10
2011,09,26,15,44,0.20
2011,09,26,15,45,0.30
2011,09,26,15,46,0.10
2011,09,26,15,47,0.00
2011,09,26,15,48,0.10
2011,09,26,15,49,0.00
2011,09,26,15,50,0.10
2011,09,26,15,51,0.10
2011,09,26,15,52,0.00
2011,09,26,15,53,0.00
2011,09,26,15,54,0.20
2011,09,26,15,55,0.50
2011,09,26,15,56,0.00
2011,09,26,15,57,0.70
2011,09,26,15,58,0.80
2011,09,26,15,59,0.20
2011,09,26,16,00,0.00
2011,09,26,16,01,2.30
2011,09,26,16,02,2.90
2011,09,26,16,03,1.60
2011,09,26,16,04,1.70
2011,09,26,16,05,1.50
2011,09,26,16,06,1.20
2011,09,26,16,07,2.00
2011,09,26,16,08,1.60
2011,09,26,16,09,0.20
2011,09,26,16,10,0.50
2011,09,26,16,11,0.10
2011,09,26,16,12,1.90
2011,09,26,16,13,4.30
2011,09,26,16,14,8.60
2011,09,26,16,15,8.50
2011,09,26,16,16,9.90
2011,09,26,16,17,8.50
2011,09,26,16,18,8.30
2011,09,26,16,19,9.00
2011,09,26,16,20,8.90
2011,09,26,16,21,9.30
2011,09,26,16,22,9.10
2011,09,26,16,23,9.90
2011,09,26,16,24,9.50
2011,09,26,16,25,9.80
2011,09,26,16,26,7.70
2011,09,26,16,27,11.80
2011,09,26,16,28,13.00
2011,09,26,16,29,12.00
2011,09,26,16,30,10.80
2011,09,26,16,31,7.80
2011,09,26,16,32,6.80
2011,09,26,16,33,7.80
2011,09,26,16,34,9.10
2011,09,26,16,35,9.90
2011,09,26,16,36,9.70
2011,09,26,16,37,13.90
2011,09,26,16,38,12.70
2011,09,26,16,39,11.10
2011,09,26,16,40,9.50
2011,09,26,16,41,10.60
2011,09,26,16,42,9.80
2011,09,26,16,43,9.90
2011,09,26,16,44,9.10
2011,09,26,16,45,7.70
2011,09,26,16,46,7.20
2011,09,26,16,47,8.00
2011,09,26,16,48,14.00
2011,09,26,16,49,11.40
2011,09,26,16,50,9.80
2011,09,26,16,51,10.90
2011,09,26,16,52,10.50
2011,09,26,16,53,11.70
2011,09,26,16,54,8.60
2011,09,26,16,55,12.10
2011,09,26,16,56,8.90
2011,09,26,16,57,8.10
2011,09,26,16,58,8.30
2011,09,26,16,59,8.80
2011,09,26,17,00,4.50
2011,09,26,17,01,4.50
2011,09,26,17,02,3.10
2011,09,26,17,03,6.20
2011,09,26,17,04,4.50
2011,09,26,17,05,7.00
2011,09,26,17,06,7.20
2011,09,26,17,07,7.90
2011,09,26,17,08,6.10
2011,09,26,17,09,10.10
2011,09,26,17,10,10.90
2011,09,26,17,11,10.50
2011,09,26,17,12,10.40
2011,09,26,17,13,10.80
2011,09,26,17,14,10.00
2011,09,26,17,15,11.50
2011,09,26,17,16,12.60
2011,09,26,17,17,9.80
2011,09,26,17,18,12.40
2011,09,26,17,19,11.00
2011,09,26,17,20,9.00
2011,09,26,17,21,11.90
2011,09,26,17,22,10.20
2011,09,26,17,23,12.70
2011,09,26,17,24,13.70
2011,09,26,17,25,12.20
2011,09,26,17,26,13.80
2011,09,26,17,27,14.90
2011,09,26,17,28,12.90
2011,09,26,17,29,12.00
2011,09,26,17,30,9.60
2011,09,26,17,31,12.90
2011,09,26,17,32,12.90
2011,09,26,17,33,10.60
2011,09,26,17,34,11.00